Theta_e
309 311 311 311 311 312 313 312 309 309 311 313 314 315 318 318 321 323 325 326 328 331 331 329 328 328 327 328 329 325 320 318 317 320 323 326 324 318 318 319 319 321 323 325 323 321 323 322 321 322 321 320 321 320 319 319 319 321 323 322 322 323 323 320 320 319 319 319 319 318 318 321 323 321 321 321 321 323 324 324 328 324 322 326 320 326 335 334
309 311 311 311 311 311 312 313 311 309 309 313 314 315 317 318 320 323 325 325 326 329 330 330 328 328 328 328 329 323 316 316 317 317 321 326 323 319 319 319 319 321 322 323 323 322 322 323 322 322 322 321 321 321 319 318 320 322 323 323 322 322 320 318 318 317 318 317 318 319 317 319 320 322 321 321 321 322 324 323 327 325 324 326 318 326 335 333
308 310 311 312 311 310 311 313 313 311 309 311 315 316 317 319 320 323 325 324 324 327 330 330 328 327 327 328 328 321 314 318 320 318 319 322 320 320 319 318 319 320 321 323 323 323 322 323 322 322 323 323 322 321 321 319 319 321 322 324 322 320 318 317 317 316 316 316 317 318 316 317 318 320 321 321 322 321 323 322 326 326 327 328 321 327 334 332
307 308 311 312 312 310 310 311 313 313 310 309 313 317 318 319 320 322 324 324 325 326 329 329 328 327 327 329 326 317 315 319 321 319 319 320 318 319 318 318 319 319 320 322 323 324 323 323 322 322 323 324 324 322 322 319 318 320 321 323 320 319 318 316 316 315 315 315 316 317 317 318 317 318 319 320 320 321 322 321 324 324 326 331 325 328 334 333
306 307 310 311 312 311 310 310 312 314 313 310 310 315 318 319 320 322 323 325 325 325 328 329 329 328 327 328 324 316 318 321 322 321 321 322 320 318 318 318 319 319 320 322 323 324 324 323 322 323 322 324 326 324 323 320 318 319 319 319 318 318 318 316 316 315 315 315 315 317 317 317 317 317 318 319 319 320 321 319 321 321 324 330 324 327 332 331
305 307 309 311 312 312 310 310 311 313 314 313 311 312 316 318 319 320 322 325 325 325 328 328 329 328 327 327 321 318 322 324 324 325 323 323 321 318 317 318 319 320 320 322 323 324 324 323 323 324 323 324 324 323 323 320 318 319 317 317 317 317 318 317 318 317 316 316 317 317 316 315 316 317 317 318 319 319 320 318 319 318 323 329 323 323 326 327
305 306 308 310 312 312 310 310 311 312 313 315 312 311 314 316 317 318 319 324 325 326 327 328 329 328 328 325 320 319 323 324 324 325 324 324 321 317 317 318 319 320 320 321 322 324 324 323 323 324 324 324 324 323 323 321 319 320 317 316 316 317 318 318 318 318 317 318 318 317 315 315 316 318 317 318 318 319 319 318 318 317 325 331 325 320 320 322
305 305 307 310 311 311 311 310 310 311 312 315 314 312 313 314 315 316 318 322 325 326 327 328 328 328 327 321 319 321 323 324 324 324 324 324 321 317 317 318 319 320 321 322 322 323 324 324 324 324 325 325 325 324 323 322 321 322 319 317 317 318 320 319 319 319 319 319 318 318 318 318 317 316 316 317 317 317 318 318 317 316 324 329 326 322 320 322
306 305 306 308 310 310 311 311 310 311 312 314 315 314 314 314 314 314 318 323 324 326 327 328 327 327 326 319 319 322 322 324 323 323 323 323 322 317 316 318 319 320 322 322 323 324 324 324 324 324 325 326 326 324 322 323 323 323 321 319 319 320 320 320 320 321 321 320 319 320 321 319 316 315 316 317 317 317 317 318 317 318 321 325 328 326 324 325
306 305 306 307 309 309 311 311 310 310 311 314 315 315 314 314 315 314 318 323 325 325 327 328 327 326 324 319 319 322 322 323 322 323 323 323 322 317 315 317 319 322 323 323 324 324 325 325 325 325 326 326 326 324 322 322 322 322 321 320 321 321 322 321 321 322 322 321 320 320 321 320 316 314 317 318 316 316 316 318 319 320 323 325 328 329 328 329
306 306 306 306 308 308 310 311 310 310 311 313 314 315 314 314 316 316 316 320 323 325 326 327 327 326 323 319 319 321 321 322 321 323 323 322 322 318 316 317 319 322 323 323 324 325 325 325 325 325 326 326 325 324 323 322 321 321 321 322 322 323 324 323 323 324 323 321 320 319 320 321 318 313 316 318 317 316 316 320 322 321 324 325 328 328 328 331
307 307 306 306 308 308 310 310 310 310 311 312 313 314 315 314 316 316 314 317 320 323 326 326 326 326 322 318 319 320 320 321 321 322 322 321 321 318 318 320 320 322 323 324 325 325 325 325 325 325 325 325 325 324 324 322 321 321 322 323 323 324 324 324 326 323 322 321 319 319 321 323 320 315 317 318 318 316 317 321 323 322 323 326 329 328 326 329
307 307 306 306 308 309 310 310 309 310 311 312 313 314 314 314 315 313 312 315 318 321 325 326 325 326 322 319 319 319 320 321 321 322 322 320 319 319 321 322 322 322 324 324 325 326 325 325 324 324 324 325 324 324 323 322 321 322 322 323 324 325 324 325 326 320 319 320 318 320 323 324 322 319 318 318 317 317 318 321 322 322 323 326 330 330 328 327
307 306 306 307 308 308 309 310 309 310 311 311 313 313 314 314 314 312 311 315 317 317 321 325 326 325 322 320 320 319 320 321 321 321 321 320 320 322 323 323 323 323 324 325 325 325 324 324 323 324 325 325 324 323 323 322 322 322 322 322 324 325 326 323 321 319 319 318 315 319 323 323 323 321 318 317 317 318 319 320 321 323 324 326 329 330 330 328
308 306 306 308 308 309 309 310 310 310 311 311 312 314 315 314 312 311 311 314 316 315 318 324 325 322 320 320 320 320 320 321 322 321 320 322 323 323 323 323 325 324 325 325 325 324 323 323 324 325 325 324 323 323 324 323 323 323 324 325 325 325 326 323 320 319 319 316 313 317 321 322 322 320 317 315 318 319 319 319 320 323 324 326 328 329 330 330
308 307 307 308 309 310 309 310 310 310 311 311 312 314 314 313 313 312 310 312 315 316 319 323 323 320 320 321 321 320 320 321 322 320 320 323 323 322 323 324 326 326 326 326 324 323 323 324 324 324 323 323 323 324 325 325 325 324 325 328 327 326 326 325 320 317 317 316 314 316 318 320 319 317 315 313 316 318 319 319 319 322 324 324 327 328 328 330
309 308 308 308 309 309 310 311 311 311 312 312 313 314 313 314 317 316 311 310 313 317 321 324 322 320 320 321 321 320 320 321 322 320 321 324 324 323 324 324 325 325 325 325 324 324 324 324 324 323 323 323 323 325 327 328 328 326 326 327 327 327 326 325 319 314 314 316 316 316 316 317 317 317 316 314 314 317 318 318 318 321 324 325 325 327 328 329
308 308 308 308 308 310 311 311 311 312 312 312 314 313 313 317 320 318 314 311 312 316 321 323 321 320 321 321 321 320 320 322 322 320 321 324 324 324 324 324 324 324 324 325 324 325 325 324 323 323 324 324 324 327 329 329 329 327 326 327 327 326 324 324 321 315 313 315 316 317 316 317 316 316 317 317 316 316 317 317 318 319 321 324 324 324 326 328
309 309 309 308 309 311 312 312 312 312 312 312 313 313 314 318 319 318 317 314 313 316 318 318 319 321 321 320 321 320 320 322 321 320 322 323 324 324 324 324 324 324 324 325 325 325 325 324 325 326 325 325 325 327 328 328 327 327 326 326 327 326 323 323 322 317 315 317 318 318 318 318 317 316 317 318 317 316 317 316 317 318 319 322 322 322 322 323
309 309 309 309 311 311 312 312 313 313 313 312 312 314 316 317 317 317 317 315 314 315 316 317 318 319 317 318 321 320 320 322 320 321 322 323 323 323 323 324 323 324 324 324 325 325 324 325 326 327 326 325 325 325 325 325 326 326 327 327 326 327 325 323 321 317 315 319 321 320 320 319 318 317 316 318 318 316 317 316 317 318 319 320 322 322 319 318
309 309 309 310 311 311 312 312 313 313 313 312 312 316 317 315 316 316 316 316 313 313 315 315 316 316 314 315 321 321 321 322 320 321 322 322 323 323 323 323 322 324 324 324 325 324 324 326 326 325 325 324 324 324 324 325 326 326 327 327 326 326 326 324 320 316 315 318 322 322 321 321 319 317 316 317 317 317 316 316 316 317 318 319 320 321 319 318
308 309 309 310 309 311 312 312 313 312 312 313 313 315 316 314 314 314 314 315 314 313 314 314 314 314 313 314 319 321 321 322 321 322 322 322 323 323 323 322 322 324 324 324 326 325 326 326 325 324 325 324 324 324 325 325 326 326 327 327 327 327 326 324 320 316 314 317 321 321 320 321 320 318 318 318 317 317 317 316 316 316 317 318 320 320 320 320
308 308 309 309 308 309 311 312 312 311 311 313 314 314 314 313 312 311 312 314 314 313 313 313 313 313 312 313 318 321 321 321 321 321 322 322 322 322 323 322 322 323 324 324 326 326 327 326 324 324 325 324 325 325 325 326 326 326 326 327 327 326 325 325 321 315 314 316 319 319 318 319 319 319 319 319 319 318 317 317 316 316 316 317 318 319 321 320
308 308 309 308 307 308 309 310 312 312 312 313 314 313 313 313 312 311 312 313 313 312 312 312 312 311 311 312 318 322 321 321 321 321 321 321 322 322 323 322 322 323 324 324 324 326 326 324 324 324 324 324 325 325 325 326 326 326 326 326 326 326 325 324 320 315 314 316 316 316 317 319 319 320 320 321 322 320 320 319 317 316 316 316 317 318 319 319
307 308 308 307 306 306 307 309 311 312 312 313 314 313 313 314 312 311 312 313 313 311 310 312 312 311 311 312 315 320 321 320 320 320 321 321 321 322 322 322 322 323 323 323 324 325 325 324 324 324 324 325 325 325 325 325 326 325 325 325 325 325 324 323 321 318 320 322 317 315 320 323 321 321 321 322 323 322 322 321 318 317 316 316 317 317 317 317
307 308 308 307 306 305 306 308 309 311 312 313 313 313 313 313 312 312 312 312 312 311 310 312 312 312 312 311 314 319 322 321 320 320 321 321 321 322 322 322 322 323 323 322 324 325 324 323 324 324 325 326 326 325 325 325 326 326 325 323 324 325 324 323 321 321 324 326 318 314 319 323 322 322 322 322 323 324 325 322 319 318 317 317 316 316 316 316
308 308 307 307 306 304 306 308 308 310 312 312 312 311 311 313 312 312 312 312 313 312 311 311 312 314 315 313 315 320 323 322 321 321 321 321 321 322 323 323 322 323 323 323 326 326 324 324 325 325 325 326 326 326 325 324 326 327 324 322 323 323 324 324 322 322 323 323 319 315 317 319 320 320 320 321 322 323 324 323 320 318 318 317 316 316 316 316
307 307 306 306 306 305 307 307 306 308 311 311 311 310 311 312 311 310 312 314 314 312 312 312 313 315 316 316 318 321 322 322 322 322 320 321 322 322 323 322 321 322 322 324 326 325 323 324 325 325 326 327 326 326 325 323 325 325 322 322 322 322 324 324 323 323 319 319 322 321 318 319 320 320 319 320 320 321 322 322 321 320 319 318 317 317 317 317
306 306 306 305 305 306 306 306 305 308 309 309 310 310 311 311 310 310 312 314 314 311 312 313 313 315 317 318 320 320 320 321 322 322 320 322 322 322 323 323 321 323 323 323 324 323 322 324 324 324 326 326 325 324 324 323 324 322 321 322 322 322 323 322 323 321 317 319 323 324 320 320 322 321 320 320 319 319 321 321 322 321 319 318 317 317 317 317
304 305 305 304 305 305 305 306 306 307 307 308 309 310 310 309 310 313 313 314 315 312 313 314 314 316 317 319 321 320 320 321 321 321 320 321 320 320 322 323 322 323 323 322 321 320 320 322 324 324 325 325 324 324 323 323 322 321 321 322 321 321 319 319 320 318 319 322 322 322 322 320 322 323 321 322 321 319 320 320 322 322 321 319 317 317 317 317
303 304 304 304 304 304 305 307 307 307 307 307 308 308 309 309 309 314 314 314 314 313 314 316 315 317 318 319 321 320 320 320 320 320 319 320 319 319 322 324 324 324 323 322 320 319 320 323 324 321 322 323 324 322 319 319 320 320 320 321 320 319 317 318 318 317 322 326 320 318 321 320 321 323 321 322 322 319 319 319 320 322 322 321 318 317 317 317
302 302 302 303 304 303 306 307 305 306 307 307 307 308 309 309 310 313 313 313 314 314 314 316 316 318 318 319 320 321 320 320 320 319 319 320 320 321 323 325 325 324 323 323 321 321 321 322 321 318 319 322 323 321 316 315 317 319 319 321 322 320 320 321 320 318 323 323 314 313 317 319 320 321 320 321 321 320 319 319 320 321 321 321 319 318 318 318
301 301 301 302 303 304 306 306 304 305 308 308 308 309 309 309 311 313 313 312 313 313 313 315 316 318 318 319 320 320 320 320 320 320 320 321 322 322 323 324 324 324 325 324 322 323 322 320 319 318 319 321 322 321 318 315 316 317 318 321 324 322 323 325 323 320 323 320 313 313 316 319 320 319 319 319 319 319 319 318 319 320 319 319 319 318 318 317
301 301 301 301 302 303 306 306 304 307 309 308 309 309 308 310 312 313 312 311 311 313 313 314 316 318 318 319 319 320 321 320 320 320 321 322 322 323 324 323 323 324 325 323 322 323 324 322 320 319 320 320 321 322 320 316 315 316 318 321 323 322 324 327 324 323 325 320 314 315 318 321 321 317 316 316 316 315 315 316 316 317 317 316 317 316 316 316
302 302 302 302 302 302 305 307 307 308 308 308 308 308 308 310 311 312 312 310 310 312 313 314 316 318 318 318 318 318 320 320 320 321 321 323 323 324 325 323 322 322 323 324 322 322 323 323 319 318 318 319 322 320 316 315 315 315 317 320 323 322 322 324 320 320 322 319 316 316 318 320 319 318 316 316 316 314 313 314 314 315 315 315 315 314 315 315
303 304 303 303 303 302 304 306 307 307 308 309 307 306 308 310 311 312 312 311 311 312 313 315 316 317 318 317 317 318 318 318 320 321 321 323 324 324 323 322 321 321 322 323 322 322 323 321 316 316 318 319 321 318 314 317 318 316 316 319 320 319 320 322 319 315 317 322 322 317 317 318 318 319 319 318 319 316 314 314 313 315 315 315 316 315 315 315
300 303 304 304 303 303 303 304 304 306 308 309 308 307 308 309 310 312 312 312 312 313 314 316 315 316 317 317 315 316 317 318 320 321 321 322 324 323 321 321 321 320 320 322 321 321 322 319 314 315 318 318 317 316 315 318 318 316 317 318 317 318 319 320 321 320 320 323 324 319 319 319 318 319 319 319 320 319 316 314 313 314 315 315 316 315 316 316
296 300 303 303 304 303 304 305 304 305 307 307 308 309 308 307 308 310 311 312 313 313 314 315 314 314 316 317 315 315 316 319 320 320 320 322 323 323 320 321 321 321 321 321 321 320 320 318 314 313 316 316 314 316 318 317 315 315 317 318 318 321 322 320 322 324 323 324 324 321 320 319 318 319 318 318 319 318 318 316 314 314 314 315 315 315 315 315
296 300 302 302 303 304 304 306 305 305 306 305 306 308 306 306 308 309 310 311 313 314 315 315 314 313 314 315 315 314 314 318 320 319 319 321 323 322 320 321 321 321 321 320 320 319 318 320 317 313 313 315 316 318 319 317 314 314 316 317 318 321 321 321 322 322 322 323 323 323 321 319 319 319 318 319 319 318 318 318 316 316 316 316 315 314 314 313
300 303 302 300 303 304 304 306 306 305 305 304 305 306 306 307 308 308 309 310 311 313 315 315 314 314 314 314 314 314 314 316 318 319 319 321 322 322 321 320 320 320 321 320 319 319 318 319 318 313 311 316 318 318 319 318 315 314 315 318 318 318 317 319 321 320 321 322 323 324 324 320 319 319 319 319 319 319 319 318 318 318 317 316 314 312 312 311
301 304 302 300 303 305 305 305 305 305 305 304 304 306 307 307 308 308 309 310 310 311 312 313 314 314 313 313 314 314 313 315 317 318 320 321 322 323 322 320 320 319 320 320 319 319 318 317 316 314 314 317 317 315 315 316 315 315 316 317 318 318 317 320 322 320 320 322 323 323 323 321 318 317 318 318 318 319 319 319 319 318 316 314 313 312 311 310
302 304 302 300 303 305 305 305 305 305 305 305 305 306 307 308 309 308 308 309 310 310 310 311 313 314 313 314 314 313 313 315 316 318 320 321 321 322 321 320 321 319 318 319 318 317 316 316 315 315 315 316 313 310 311 313 314 316 316 317 318 318 318 321 323 321 319 320 320 319 321 321 316 314 316 317 317 316 316 316 317 316 314 313 313 312 312 311
303 303 302 301 303 305 304 304 304 304 304 305 306 307 308 308 308 308 308 308 308 309 308 309 311 313 313 314 314 313 313 315 316 318 321 322 320 319 320 321 321 319 317 317 316 315 315 316 315 315 313 312 311 310 311 311 313 316 317 317 318 318 319 320 319 318 319 320 320 319 321 322 316 314 316 315 314 313 312 313 313 313 313 313 312 312 311 311
302 302 302 302 303 304 304 304 304 304 304 305 305 306 307 308 308 308 308 308 308 308 308 308 310 312 313 314 314 314 314 316 317 318 320 322 319 315 318 321 320 318 318 317 316 317 317 316 315 316 315 315 314 314 314 313 313 316 317 317 317 319 320 318 315 314 317 319 320 320 323 322 316 315 316 312 312 312 312 312 311 312 313 312 311 310 310 311
301 301 302 303 303 304 304 304 304 304 304 305 305 305 306 307 308 308 308 308 308 309 309 309 310 312 313 314 314 314 315 316 317 317 317 319 316 314 317 321 319 318 318 317 316 317 317 316 316 317 317 318 318 318 317 315 314 315 317 317 318 319 319 318 316 316 318 319 319 319 321 320 316 314 313 312 312 312 313 312 311 311 312 311 310 310 311 311
301 301 301 302 303 304 304 305 305 305 305 305 305 305 305 306 307 308 308 308 308 309 309 310 311 311 312 313 314 314 314 314 314 314 315 316 314 314 317 319 318 318 317 316 316 316 316 316 316 317 317 318 318 318 317 316 315 316 317 318 318 318 319 319 318 319 318 319 319 319 319 320 318 315 313 313 313 314 314 313 312 311 311 310 310 310 310 311
301 301 301 302 303 303 304 304 304 304 305 305 305 305 305 305 307 308 308 308 309 310 310 310 311 310 311 312 313 314 314 313 311 312 314 315 313 313 316 318 318 317 315 316 316 316 316 316 317 317 317 317 317 316 316 316 316 316 316 317 317 316 318 319 318 319 319 320 321 320 319 321 320 317 316 315 314 315 315 313 312 312 311 310 310 310 310 311
301 301 302 302 303 303 303 304 304 304 304 305 305 305 305 305 306 307 307 308 309 310 310 310 310 310 310 312 313 314 314 313 312 312 312 313 313 314 317 318 317 314 315 317 316 317 319 317 317 318 318 317 316 315 315 316 316 316 315 316 316 316 317 318 318 318 319 321 321 321 321 321 320 318 318 316 315 315 315 313 311 311 311 310 310 310 311 311
300 301 302 302 303 304 304 304 304 304 304 305 305 305 306 305 305 307 307 308 309 310 309 309 310 310 310 311 312 313 314 314 314 313 311 312 315 316 317 319 316 314 316 316 315 317 319 317 318 319 318 317 317 316 316 316 316 316 315 315 315 315 316 316 317 317 318 320 320 320 321 321 320 319 318 317 317 316 313 312 311 310 310 311 311 311 311 311
300 300 301 302 303 303 304 305 304 304 304 304 305 305 305 305 305 306 307 308 309 309 309 308 309 310 310 310 311 312 313 314 315 313 311 312 315 316 317 318 317 316 316 316 315 316 317 318 319 318 316 315 316 317 317 317 317 317 316 315 315 315 315 316 316 317 317 318 318 319 320 320 319 319 318 318 318 316 314 312 311 311 311 311 312 312 312 313
299 300 301 301 302 302 303 304 304 304 304 304 304 305 305 305 305 306 308 308 308 309 309 308 308 310 311 310 311 311 312 313 315 314 312 312 315 316 316 317 316 316 317 317 316 316 316 318 318 317 316 315 315 316 317 317 317 317 317 317 316 315 316 316 316 317 317 318 318 319 319 319 318 318 318 318 318 317 315 314 314 314 314 313 313 313 314 314
299 299 299 300 300 301 301 302 303 304 304 304 304 305 305 305 305 305 307 308 308 309 309 309 308 310 311 311 311 311 312 313 314 314 312 312 314 314 314 314 315 316 317 318 317 316 316 317 317 316 317 315 315 316 317 317 317 316 317 317 316 316 316 316 316 316 316 317 318 318 318 318 317 317 316 316 316 316 316 316 316 316 315 315 315 315 315 315
Wind_Speed
40 40 39 38 37 35 33 32 34 36 35 35 36 36 35 32 32 36 37 38 38 36 34 33 31 28 28 26 24 24 22 22 21 25 30 29 28 23 22 25 23 20 21 20 17 17 18 14 11 15 15 16 18 10 3 1 5 6 5 6 6 7 3 3 4 5 3 4 7 6 3 4 2 3 4 5 7 6 5 7 7 10 10 8 6 6 12 14
40 39 38 39 39 37 34 33 34 35 35 35 37 37 36 34 33 35 39 40 38 37 36 34 32 29 28 27 25 25 23 21 20 25 31 28 27 26 23 24 23 21 20 19 19 19 19 18 15 14 16 13 12 12 5 4 5 6 4 7 6 1 3 5 6 7 5 5 6 5 4 3 3 1 2 4 7 8 7 9 10 10 11 12 9 10 14 14
40 40 39 39 40 39 37 35 34 34 35 36 37 37 37 35 34 34 38 40 39 38 37 34 33 31 29 28 27 26 24 18 19 27 31 30 29 28 26 24 25 24 22 19 17 17 18 19 17 14 14 11 9 11 7 6 5 4 4 6 4 5 7 7 7 7 6 6 6 5 4 2 3 2 2 4 7 8 10 10 11 12 13 14 11 13 15 14
40 41 40 39 39 40 40 37 35 35 35 37 38 38 37 35 34 35 37 39 39 39 38 35 34 33 31 29 28 27 21 14 24 35 32 32 33 30 28 25 26 27 24 19 15 14 14 17 18 16 15 10 8 8 6 7 4 3 4 3 4 7 6 6 6 6 6 5 6 6 4 3 1 3 5 6 8 7 9 9 9 12 13 16 14 17 17 14
41 42 42 41 40 40 42 39 36 36 35 37 39 38 39 37 34 33 37 39 39 40 39 37 35 34 33 31 29 27 20 9 20 37 36 32 33 32 30 26 27 29 26 21 16 14 14 16 16 16 16 9 6 4 3 5 3 2 3 3 6 4 4 6 4 6 6 4 5 6 5 5 4 5 8 9 9 5 4 4 3 6 8 16 16 18 19 16
42 43 43 42 41 40 42 42 39 38 36 35 38 38 39 40 36 32 35 38 39 39 39 38 36 34 35 34 31 29 24 8 5 24 37 33 32 33 31 28 27 28 27 24 19 16 16 17 15 15 15 10 10 7 3 5 3 2 2 5 5 2 4 6 3 6 6 5 5 7 7 8 8 8 8 10 13 8 8 9 5 4 5 14 15 18 20 18
44 45 45 44 43 42 43 45 41 40 38 35 36 38 39 41 41 36 34 37 39 39 39 42 38 35 37 35 32 30 31 18 1 10 28 33 33 32 32 30 28 28 27 26 22 20 18 19 18 16 14 10 14 13 5 5 4 5 3 6 5 3 3 3 2 3 4 5 6 7 8 9 9 8 5 9 14 12 14 16 12 6 6 13 15 17 19 18
46 47 48 46 45 44 45 46 43 41 40 38 36 37 39 40 43 42 36 35 39 39 41 44 41 38 37 35 33 30 34 27 8 8 19 30 34 33 33 30 30 30 28 26 24 23 20 20 21 16 12 8 13 15 8 6 4 8 5 7 5 2 1 1 2 4 5 5 6 7 10 11 9 8 8 14 17 12 14 18 15 9 8 12 15 17 18 19
47 49 49 49 48 47 46 46 44 43 42 40 37 37 40 39 41 43 37 35 40 41 41 45 42 39 37 35 32 26 33 29 14 12 17 27 35 34 34 31 31 29 27 26 24 24 21 21 21 16 12 9 10 12 11 8 5 7 5 5 4 2 2 3 6 7 6 7 7 9 13 11 5 6 10 15 15 10 12 15 13 11 10 12 14 17 18 19
47 49 50 51 50 48 46 46 45 44 43 42 39 38 40 40 40 41 38 34 40 43 40 44 42 40 39 37 29 20 26 30 19 18 18 26 35 35 36 33 32 29 25 25 24 25 22 20 21 15 11 10 9 9 11 9 5 5 3 2 3 5 6 7 8 9 9 9 8 9 11 11 5 4 7 6 5 7 9 10 10 11 12 12 14 16 18 18
47 49 50 51 51 50 47 46 46 45 44 43 40 40 40 41 41 41 41 33 36 41 40 45 44 41 43 41 32 16 17 28 22 21 21 25 35 37 37 35 33 30 26 26 25 25 21 17 20 14 5 7 10 8 9 8 4 5 3 2 5 9 10 10 11 12 9 6 5 6 12 15 7 6 11 8 5 7 5 8 11 12 12 12 14 15 17 18
47 48 49 51 51 50 49 47 46 45 45 44 41 40 40 43 44 43 45 36 30 36 39 43 43 43 42 39 38 20 14 29 27 23 23 26 34 36 35 34 32 30 26 27 25 23 21 15 19 17 5 4 9 7 7 8 5 3 1 4 7 9 11 13 14 9 5 5 3 4 12 15 10 12 16 14 14 12 6 9 10 11 12 12 13 14 16 18
48 48 47 49 50 50 49 47 47 46 45 45 42 41 41 44 46 44 46 39 27 31 36 40 43 44 40 34 41 29 14 28 31 25 26 28 33 31 30 30 29 28 25 25 23 23 25 17 17 19 10 6 6 5 5 6 5 3 1 4 6 7 10 14 12 4 3 6 4 3 8 10 10 14 16 14 15 11 7 10 10 11 12 12 13 14 16 17
47 47 45 46 49 49 48 46 47 46 45 45 42 42 41 42 46 44 44 41 31 28 30 40 49 49 42 32 43 39 18 24 31 27 30 32 32 30 29 28 25 26 23 22 24 25 26 21 18 17 9 6 6 7 6 5 5 5 2 2 5 7 8 6 4 3 3 4 6 7 8 8 10 7 9 11 11 9 8 10 10 12 12 13 14 14 16 17
45 46 45 44 47 48 46 45 46 46 45 45 42 41 41 39 41 42 43 43 39 32 27 37 51 48 36 23 34 42 27 25 32 30 32 35 35 34 31 28 24 24 23 23 27 27 24 22 19 14 7 6 10 8 4 3 5 5 4 4 6 7 6 5 4 4 4 2 7 9 7 7 10 4 5 4 8 8 9 10 10 12 13 13 14 15 15 16
44 45 45 44 45 46 45 44 43 44 45 44 43 41 40 38 36 37 40 44 43 35 28 36 49 44 24 14 26 38 32 30 34 32 33 35 35 36 32 29 27 26 25 23 25 25 23 21 17 13 9 7 8 7 4 5 6 7 7 7 7 8 7 4 4 3 4 3 7 11 7 4 6 2 3 1 4 6 9 10 10 12 12 13 13 14 15 15
44 43 44 44 43 44 44 43 42 43 44 44 44 40 39 36 35 37 39 45 44 33 30 37 51 44 19 15 26 36 39 35 35 35 35 34 32 35 34 30 29 27 26 23 22 24 22 18 14 10 7 5 6 6 6 8 8 8 8 7 8 10 8 5 3 3 3 5 8 12 10 9 8 8 8 6 4 5 8 10 10 10 11 12 13 13 14 15
42 41 41 42 42 43 43 42 40 41 42 44 42 39 38 34 34 38 38 45 45 34 29 31 41 32 11 21 32 38 45 39 37 40 37 33 30 33 35 31 29 26 24 20 19 20 17 14 11 7 5 6 7 7 7 8 9 9 9 8 8 9 8 6 3 3 3 5 8 10 11 12 12 14 18 14 8 8 10 11 11 11 11 12 14 15 16 17
41 40 40 41 41 42 41 41 41 41 42 43 42 40 38 32 30 35 37 41 38 25 13 14 27 13 3 23 39 40 48 43 39 41 37 35 33 32 30 29 32 30 24 16 14 17 14 10 9 9 9 10 10 11 11 10 10 12 11 10 10 9 7 7 5 3 2 5 8 11 13 13 12 12 17 18 13 12 13 13 13 13 12 13 15 17 19 20
41 39 39 41 40 40 40 41 40 41 42 42 43 40 33 27 19 19 28 35 38 29 8 2 19 8 11 12 35 39 44 41 39 41 39 38 37 33 27 26 29 25 20 15 13 16 15 11 10 12 13 14 15 16 17 13 10 12 12 12 11 9 8 6 6 5 4 4 9 12 14 15 14 12 14 17 13 11 13 14 16 16 14 15 15 17 21 23
41 40 39 39 39 38 38 38 37 39 41 41 45 39 31 29 15 11 21 23 35 45 26 9 11 11 13 5 27 45 42 34 38 42 40 40 39 31 24 25 21 13 16 19 16 12 12 12 14 16 17 18 18 17 18 15 11 12 13 12 11 11 9 5 4 6 6 4 8 11 15 16 15 14 14 16 14 13 15 16 17 18 17 17 17 18 20 20
39 38 37 36 36 35 34 35 34 37 38 37 41 35 30 36 28 21 25 13 22 43 39 24 16 18 16 10 19 48 43 30 32 36 40 42 38 29 24 24 17 12 16 16 13 10 10 12 15 19 19 18 18 18 18 16 13 12 10 9 8 9 8 5 5 8 6 4 6 9 12 14 15 16 16 17 16 16 17 18 18 18 17 17 17 18 18 17
36 35 33 31 32 32 32 33 32 35 38 37 39 33 27 38 34 23 22 9 8 26 34 33 26 23 21 15 15 41 38 29 31 35 42 42 37 34 29 24 18 16 16 12 12 12 9 11 16 20 19 18 18 18 17 14 11 11 9 8 8 8 7 6 6 8 7 5 6 9 10 12 14 15 16 20 23 21 19 19 19 19 18 19 19 17 16 18
35 34 31 29 30 31 30 32 31 32 37 37 35 31 26 34 33 20 17 6 3 9 20 30 30 28 27 18 17 36 37 34 39 42 47 44 38 33 27 26 23 16 15 16 17 14 6 7 17 19 16 18 17 17 17 12 10 10 11 10 9 9 9 6 2 5 6 8 8 9 9 10 12 15 15 18 23 24 24 23 22 22 21 21 20 17 18 21
34 32 29 29 29 29 29 30 31 30 33 34 31 30 25 25 29 23 15 5 3 5 9 19 23 28 33 24 21 33 35 32 43 50 51 48 43 32 23 27 23 15 19 22 18 12 7 13 21 19 14 16 16 15 18 14 10 10 9 11 10 10 9 7 3 2 4 6 6 6 7 6 6 12 13 11 15 21 24 24 23 22 21 23 23 22 24 26
33 30 28 29 27 28 28 25 27 28 28 28 29 31 26 20 26 27 14 3 4 6 6 14 14 18 28 26 27 33 27 20 39 53 51 46 43 32 23 22 16 15 22 20 12 6 6 16 21 17 15 16 15 15 17 15 11 9 7 10 13 11 8 7 5 3 4 5 2 5 7 6 5 8 9 9 11 17 21 20 21 22 20 21 25 27 30 30
31 29 28 27 27 28 22 17 25 29 23 22 27 31 28 22 26 26 14 1 5 8 9 14 11 11 17 20 28 27 12 16 31 42 49 43 37 30 19 16 14 16 18 12 8 5 9 17 18 18 17 14 14 14 14 15 11 7 6 8 12 11 9 7 5 5 5 6 3 6 8 8 8 8 7 9 11 13 17 17 17 21 22 21 23 29 32 31
28 29 27 25 27 25 15 15 27 27 20 21 27 29 26 28 32 24 10 4 4 8 9 13 12 13 12 18 32 18 13 33 26 27 50 42 32 28 15 14 16 17 19 12 7 7 12 17 16 18 16 11 13 13 12 15 11 4 6 6 9 9 8 7 7 6 3 4 6 8 6 6 8 5 4 9 12 12 14 15 14 17 21 22 22 27 32 32
27 27 26 25 27 23 14 18 25 21 17 20 27 29 25 30 32 16 4 4 3 5 6 14 15 14 10 17 29 17 15 30 17 27 53 38 28 24 12 17 19 16 20 16 7 6 10 18 20 18 13 11 13 12 12 15 11 5 6 5 5 6 5 4 6 4 1 4 8 7 6 6 8 6 6 7 9 11 11 12 13 16 21 22 22 27 32 33
26 25 26 26 25 22 18 18 19 17 17 21 27 29 24 23 17 7 6 5 3 5 9 15 14 14 16 13 17 16 12 11 14 32 39 24 21 17 11 21 20 11 12 9 6 5 5 14 19 13 10 12 14 12 13 14 11 11 8 7 5 3 2 1 3 1 2 7 6 8 10 8 7 5 6 7 7 9 9 9 12 16 20 21 23 27 31 32
22 23 25 24 23 22 19 19 19 18 19 21 27 29 22 13 4 4 7 1 3 6 9 11 12 15 20 15 9 14 11 4 17 27 17 11 13 8 10 17 12 8 8 5 5 6 7 9 10 6 9 14 13 8 6 7 13 12 7 8 6 2 2 1 3 3 6 6 1 4 9 9 9 4 2 5 5 6 8 9 10 13 18 19 22 27 29 29
19 20 21 20 21 21 17 17 21 21 21 23 28 28 18 6 5 4 2 3 2 7 6 8 12 13 19 17 9 14 12 4 15 20 12 12 11 8 13 12 8 8 7 8 7 6 8 7 7 6 7 15 14 8 5 5 9 8 7 9 6 4 4 4 5 4 7 5 2 1 4 7 11 8 7 11 10 9 10 11 12 13 16 18 19 25 30 30
18 19 19 18 19 20 16 17 24 24 24 27 26 21 11 5 5 4 2 1 2 3 5 9 12 13 17 17 10 13 14 7 14 19 15 15 13 13 16 14 16 12 8 14 10 7 7 3 6 8 7 17 18 10 6 6 8 9 9 10 7 6 6 6 6 4 6 4 5 5 3 7 9 6 10 13 10 11 13 15 17 17 17 17 15 17 24 28
19 18 17 17 18 18 18 21 26 26 30 30 20 12 8 7 3 4 4 2 2 2 5 8 14 15 15 14 10 11 11 8 15 18 16 16 13 13 14 13 17 11 8 12 6 7 8 1 8 11 7 17 20 13 10 8 8 9 7 7 8 6 6 6 5 6 6 2 6 8 4 5 4 2 1 4 4 7 11 14 16 16 19 22 21 19 19 22
19 17 17 18 18 18 20 25 26 29 33 26 12 6 9 7 2 3 4 3 1 3 5 7 12 13 11 10 10 13 7 4 13 16 14 16 14 13 14 13 16 11 10 11 4 6 8 2 9 9 3 16 20 10 10 12 7 4 3 6 7 5 5 4 1 3 3 1 4 7 4 5 3 4 6 7 6 7 9 13 14 16 20 22 24 26 25 23
19 17 15 16 18 19 22 24 23 29 32 20 6 7 8 3 1 1 4 5 3 5 7 9 9 7 7 5 7 12 6 2 13 13 9 15 15 15 14 11 16 17 14 12 6 6 9 5 8 8 6 17 19 13 16 15 8 4 4 6 3 1 3 5 2 2 1 5 5 6 6 7 6 9 10 12 13 11 9 10 12 16 19 18 19 24 26 26
18 16 13 14 18 19 21 23 23 27 26 12 4 8 5 1 1 2 2 4 6 7 8 8 5 4 7 6 5 10 6 4 13 11 7 12 12 13 14 11 15 19 17 13 6 5 8 5 2 5 10 11 9 15 20 12 7 7 7 7 5 3 3 4 4 3 3 7 6 7 9 8 6 6 3 8 13 11 9 9 9 12 14 14 19 24 25 26
15 14 11 11 17 20 20 21 24 26 19 8 6 7 3 0 3 3 1 2 8 9 5 3 2 2 6 7 6 9 7 6 11 9 6 8 7 12 17 14 16 21 21 17 8 5 9 7 3 1 5 5 2 11 14 3 2 3 6 9 7 3 5 6 5 5 7 7 5 7 10 8 8 7 3 6 8 7 7 9 9 10 11 12 17 21 20 20
13 13 8 8 15 21 21 20 23 23 14 8 9 7 4 3 4 4 1 0 3 6 6 3 2 1 3 5 5 8 9 9 11 9 6 6 5 12 18 14 15 22 24 19 10 8 8 6 3 1 1 4 3 6 10 5 1 1 3 9 7 5 5 7 6 3 4 6 5 5 7 7 8 10 10 12 10 7 9 8 8 11 12 11 10 12 14 15
12 9 5 11 17 21 23 21 21 17 9 8 9 5 4 4 4 7 7 3 1 1 3 2 3 3 4 4 3 5 7 8 10 10 7 8 8 11 17 14 13 20 23 18 12 10 7 4 6 3 1 4 5 5 10 11 8 4 6 10 9 4 1 3 5 4 3 5 5 6 7 6 3 6 9 12 11 11 11 9 7 8 7 6 5 7 10 10
13 6 5 15 21 23 24 19 14 10 6 8 8 4 4 4 5 8 10 8 3 3 4 1 3 5 5 5 3 4 5 5 9 9 6 10 9 8 15 18 16 18 19 16 13 10 6 5 8 7 4 5 3 1 4 8 10 9 7 8 9 7 4 3 6 6 4 5 5 5 8 6 3 4 5 7 8 9 9 8 7 6 3 3 5 6 7 9
9 5 7 18 24 26 24 13 8 8 6 7 7 4 5 5 6 9 10 9 5 1 5 4 2 4 5 5 3 3 5 3 7 9 7 12 12 7 16 25 23 22 17 11 8 6 5 6 8 8 5 3 2 3 3 1 5 9 6 7 9 7 7 8 7 6 6 7 5 4 8 5 5 6 4 5 4 3 2 5 7 6 4 3 6 8 9 12
8 9 10 18 26 29 21 8 6 8 7 6 4 3 7 6 5 8 9 8 6 3 2 3 3 5 5 4 3 5 7 2 6 11 8 12 12 4 17 32 29 23 16 8 7 7 6 6 8 7 3 3 4 3 3 5 1 7 8 9 11 11 11 8 3 2 5 7 6 4 9 5 5 6 4 4 3 1 3 7 8 6 4 5 9 8 7 8
12 12 9 15 26 28 16 6 8 9 7 7 5 4 7 5 6 9 9 9 7 5 4 3 4 4 4 4 4 7 9 4 6 10 6 7 7 3 19 38 31 19 12 9 11 10 6 6 8 8 5 2 2 2 3 2 5 8 10 12 14 16 15 6 1 1 4 7 9 7 10 7 3 4 3 3 3 3 7 8 7 5 4 6 8 5 2 2
12 9 6 11 22 23 12 4 7 7 6 8 6 6 8 4 7 13 11 11 11 7 5 5 5 3 2 4 6 7 9 4 3 6 3 1 2 2 17 37 32 18 10 13 18 11 6 7 7 8 9 8 7 7 6 6 6 7 10 14 16 17 17 9 3 4 6 7 9 8 10 8 2 4 3 4 5 7 8 6 4 7 8 7 5 2 3 5
6 4 5 7 15 18 13 10 8 6 6 9 6 6 9 6 6 13 13 12 12 10 6 4 6 4 3 6 7 7 10 5 1 3 3 3 1 3 15 33 31 20 13 18 23 11 4 6 7 9 12 8 4 5 7 8 7 7 10 12 11 11 12 9 5 8 10 7 7 10 15 13 6 6 7 7 9 10 7 5 5 7 8 7 6 5 5 6
3 4 6 6 7 9 11 12 11 8 8 10 6 6 12 12 7 9 12 11 11 12 7 3 6 6 3 6 6 7 11 7 3 4 4 4 1 3 11 26 24 19 15 18 24 14 3 7 10 12 14 9 6 10 12 14 13 13 15 14 13 12 11 9 9 14 14 8 10 16 19 20 17 10 8 8 10 9 6 5 6 6 6 8 7 4 2 1
2 3 7 10 7 5 9 12 12 12 12 11 8 6 12 15 10 9 11 11 11 13 8 3 8 9 7 7 5 6 9 6 4 5 2 2 3 2 9 15 13 16 15 11 14 11 4 8 12 11 10 8 10 14 15 15 15 15 18 19 18 19 19 17 17 20 18 12 14 17 16 19 21 13 10 10 9 9 7 7 7 6 7 8 7 6 7 7
3 1 5 9 7 6 13 15 13 13 14 12 9 8 11 14 14 11 9 8 10 13 11 8 11 14 13 10 7 6 9 8 7 8 6 7 9 7 9 9 6 11 13 6 6 7 5 7 10 11 8 6 9 14 16 16 14 14 18 20 19 20 22 21 21 24 20 17 20 19 14 18 18 9 8 11 13 11 6 6 7 8 9 9 11 13 14 15
4 3 3 6 8 8 11 13 11 11 12 12 10 11 11 13 16 13 9 10 10 10 14 15 14 15 16 13 12 12 13 12 9 10 13 13 11 11 11 9 7 10 13 9 7 8 8 7 10 11 6 3 5 11 15 16 14 14 17 19 20 20 21 23 23 21 17 18 25 21 14 17 13 5 7 12 13 11 5 5 8 11 13 17 20 23 25 24
7 6 3 2 5 7 8 8 8 9 9 10 11 11 11 14 18 14 10 15 16 11 16 21 19 15 14 14 18 19 17 14 10 8 18 15 10 13 11 7 12 14 12 11 9 7 7 7 10 11 7 4 5 10 14 12 10 10 13 17 22 22 21 22 21 17 15 19 22 16 13 15 8 3 7 12 12 12 10 9 13 15 18 21 22 25 28 28
11 9 6 2 3 5 6 6 7 8 8 9 12 13 13 15 18 15 10 13 18 18 20 22 18 12 11 15 22 20 19 19 14 11 19 13 4 4 3 6 21 21 13 13 10 8 9 7 8 10 8 6 7 10 11 9 5 6 12 20 26 25 21 17 15 17 19 18 14 11 14 14 3 5 5 8 8 11 13 16 19 21 22 24 25 27 27 29
Wind_Direction
233 234 234 235 235 232 230 229 228 229 230 228 227 229 229 229 231 230 225 221 219 221 223 217 217 217 205 198 197 198 192 189 194 196 201 205 200 204 214 218 216 205 197 189 183 187 187 184 183 197 203 192 189 192 213 214 181 189 218 224 238 236 215 55 53 28 348 21 33 39 21 273 237 149 216 237 228 227 207 203 211 216 211 216 223 164 163 169
231 233 233 233 235 233 230 228 227 228 229 228 227 228 229 229 230 231 226 223 222 221 221 217 215 217 204 194 197 195 191 192 199 203 205 201 197 206 212 212 210 202 193 183 184 187 184 184 174 179 184 175 178 183 218 263 202 215 229 218 234 235 81 57 55 39 19 7 359 19 37 299 297 8 190 240 235 211 217 217 211 218 209 213 220 168 171 180
230 230 231 231 232 233 231 227 226 227 227 228 228 226 226 226 227 229 227 223 223 221 222 219 215 215 204 193 194 193 193 200 215 214 207 197 194 205 208 208 205 197 191 182 183 189 187 186 178 175 172 157 158 170 205 239 223 238 242 229 207 109 94 67 56 47 30 1 343 2 20 313 282 300 217 250 261 226 230 230 206 216 206 201 206 173 176 184
230 228 229 230 230 231 231 227 225 225 225 227 228 226 223 222 223 227 228 223 220 220 220 218 213 212 204 193 191 192 191 213 229 217 206 200 197 200 204 206 202 193 190 186 185 187 184 185 185 186 180 163 151 161 193 216 217 212 225 237 129 131 115 76 57 43 27 4 345 339 326 309 308 258 241 249 265 241 240 242 215 228 206 189 197 179 178 183
230 228 227 228 229 228 229 228 224 223 223 225 228 227 223 220 221 224 226 223 219 219 219 217 213 211 205 193 189 186 181 215 236 218 210 204 199 198 201 203 201 196 193 191 187 184 181 180 183 188 189 178 154 163 206 203 200 193 199 99 106 145 120 95 72 39 23 7 343 329 328 329 327 267 244 241 252 258 306 309 240 263 209 194 203 187 186 189
231 228 226 226 227 226 227 227 222 221 221 222 227 227 225 221 220 223 225 223 219 217 219 219 215 209 203 194 188 183 184 200 258 218 215 207 200 198 198 201 201 197 197 196 188 183 180 177 182 189 190 191 185 187 189 169 182 236 194 125 116 109 100 104 69 36 18 4 356 340 334 317 298 274 254 240 246 262 299 295 281 309 206 202 214 198 198 197
231 228 226 223 225 226 226 226 223 220 219 220 224 226 227 223 220 224 226 223 219 216 217 218 214 206 201 191 186 190 202 217 310 207 212 207 200 195 196 200 200 196 195 195 192 188 182 179 186 193 195 199 194 196 196 177 225 268 199 161 148 96 102 103 44 10 349 337 340 334 318 299 283 286 287 248 250 261 271 270 267 276 194 195 211 208 211 208
230 228 225 222 223 224 224 226 224 220 217 218 222 224 226 224 223 225 227 225 219 214 214 214 210 205 200 189 184 198 211 217 219 189 197 203 201 194 195 199 200 198 194 195 195 193 188 187 187 187 200 206 191 190 181 171 254 270 211 166 171 157 201 304 308 297 306 304 319 318 302 294 280 290 292 264 261 259 255 261 261 249 201 195 206 210 214 210
229 227 224 222 222 222 222 223 223 220 217 217 218 221 224 223 223 224 225 223 217 214 213 214 210 203 200 190 188 205 214 208 203 196 186 194 198 196 196 198 200 197 195 198 197 196 195 195 191 185 199 201 185 179 165 169 229 245 205 163 183 214 246 284 287 285 296 292 299 300 298 298 284 291 283 263 257 246 241 251 250 232 211 203 202 206 210 207
229 227 224 222 222 222 222 221 221 219 217 216 216 216 221 222 220 222 222 219 218 214 213 217 212 202 196 190 194 215 212 201 197 199 194 191 194 196 197 199 199 193 194 197 195 199 196 197 196 191 197 187 176 170 163 181 194 170 162 174 226 267 274 273 277 280 286 285 282 284 295 296 280 269 267 239 207 222 232 235 225 211 207 205 200 204 207 205
228 226 223 221 221 222 222 219 218 217 216 215 214 214 217 219 218 219 220 219 219 214 212 216 211 202 192 187 200 218 197 192 192 193 195 193 192 194 196 198 198 193 194 196 196 198 194 199 200 187 182 168 167 166 168 190 182 138 154 243 248 266 268 262 269 274 277 274 270 288 293 286 264 226 246 238 231 252 233 212 209 204 203 202 203 207 208 206
225 224 221 220 220 220 220 218 215 215 215 214 214 213 214 217 218 220 220 218 215 210 211 213 210 203 192 189 203 211 186 188 191 192 189 189 193 194 193 195 197 194 196 197 197 196 193 201 196 185 183 174 165 158 174 187 174 144 203 250 254 269 267 258 263 267 267 263 263 313 295 274 241 227 240 236 242 255 230 206 207 205 207 202 201 208 212 209
223 220 217 218 219 218 219 218 214 214 213 213 214 212 212 216 218 223 221 216 210 209 212 213 214 206 191 195 206 203 192 189 192 197 189 186 190 189 190 194 195 196 198 199 196 194 196 195 184 182 190 206 181 133 140 154 160 168 180 254 253 265 263 254 254 245 254 260 221 241 280 266 246 234 223 217 228 232 207 207 208 201 204 203 200 205 212 213
220 216 213 216 218 217 217 216 213 212 211 212 213 210 211 214 218 222 219 215 213 217 221 216 214 204 192 202 208 202 196 187 192 198 188 183 181 180 187 190 192 199 200 201 198 197 199 196 188 186 188 194 162 129 126 132 171 179 139 244 239 249 250 221 207 198 233 237 180 210 253 261 272 243 184 199 219 211 208 213 207 201 200 202 202 204 211 216
215 213 210 212 214 212 213 213 210 210 210 210 210 208 209 212 218 220 216 213 216 226 234 218 205 193 188 204 208 203 198 189 195 197 185 178 178 179 182 181 183 192 193 198 202 198 195 192 189 185 165 146 146 146 158 159 187 189 180 216 216 233 236 174 164 206 230 199 171 212 250 258 265 258 125 197 220 209 230 225 206 205 201 202 205 207 211 214
207 206 206 208 209 209 209 209 208 209 209 208 207 206 207 211 215 216 214 212 215 222 227 214 197 184 181 200 201 196 193 193 196 195 186 179 180 178 173 174 178 183 188 193 196 192 189 186 182 173 153 144 159 167 190 198 202 200 210 223 201 207 226 205 177 196 230 229 196 215 251 270 248 228 86 325 252 226 244 243 222 210 206 205 206 209 212 209
201 201 203 205 208 208 205 204 205 205 206 205 202 203 204 206 207 206 210 213 214 215 213 207 193 184 184 188 187 187 188 192 192 191 187 181 180 173 167 171 175 181 186 186 186 182 179 177 170 166 164 169 181 181 197 210 209 201 211 226 211 207 219 215 163 139 216 239 225 222 240 256 260 275 283 289 270 240 248 254 242 220 211 212 209 210 213 209
198 197 198 202 204 203 200 200 201 201 202 200 199 199 196 197 199 196 200 209 213 213 215 209 190 184 192 184 182 184 186 186 186 188 184 178 179 171 166 167 165 168 167 163 173 172 165 168 167 168 181 185 184 188 206 211 203 195 200 214 214 209 216 221 180 133 186 232 245 238 242 249 252 264 269 266 240 232 253 257 253 239 222 215 215 219 219 216
192 191 191 195 197 196 195 195 194 195 196 196 195 193 191 190 192 192 194 200 204 206 216 212 192 187 1 187 186 186 185 182 182 184 180 176 178 172 168 165 161 160 155 153 173 172 160 161 176 189 190 189 189 194 209 220 212 199 203 214 213 208 215 227 207 148 167 242 254 251 255 260 254 250 257 258 235 226 251 254 252 248 234 222 219 224 228 227
187 185 185 187 190 191 192 191 190 191 190 191 189 185 185 180 180 192 192 196 204 206 212 222 199 215 0 184 179 175 178 180 178 177 177 176 173 169 167 163 162 164 165 167 173 174 172 174 192 198 189 185 188 197 210 225 223 205 212 223 224 228 225 210 195 154 140 246 257 253 259 263 263 259 252 251 234 219 241 247 246 246 237 228 220 223 232 233
184 182 179 181 185 186 188 188 189 190 187 189 185 179 179 176 173 179 176 194 211 212 224 245 216 250 311 272 181 174 169 170 174 175 176 174 168 164 161 161 164 176 182 171 156 162 182 196 203 198 190 184 188 199 210 218 216 211 221 225 227 238 238 220 178 152 151 222 257 255 260 261 259 261 257 252 240 227 236 242 244 245 241 234 225 226 233 234
179 178 176 177 179 181 182 182 187 188 185 186 181 178 184 187 194 191 176 185 209 211 224 230 237 258 264 285 197 179 166 159 169 174 172 170 169 167 163 169 173 175 181 171 150 157 195 212 204 193 193 190 191 199 206 212 213 216 224 224 230 235 239 241 180 159 163 210 259 261 262 263 260 258 254 250 247 243 238 238 243 244 244 239 230 227 224 225
172 173 171 169 171 175 176 177 181 183 183 184 183 182 188 194 199 194 180 177 193 206 221 225 235 252 249 273 212 178 168 162 167 174 174 171 173 172 168 175 181 174 174 172 164 171 196 209 194 188 192 194 196 200 202 207 212 218 222 220 231 230 236 246 183 169 184 209 261 279 274 269 265 260 252 244 244 248 243 237 239 238 240 241 237 232 220 221
166 167 164 161 165 171 173 175 176 180 184 185 187 185 186 193 196 186 167 148 30 190 215 223 228 240 238 245 210 181 176 172 169 175 178 174 173 174 173 176 178 177 177 177 177 181 187 173 177 183 189 193 198 198 198 205 210 215 221 221 230 231 234 249 180 168 208 226 241 265 279 271 254 248 246 236 231 239 244 238 235 231 231 237 237 234 228 227
164 164 163 161 163 166 169 172 173 178 183 185 187 186 185 185 186 184 160 106 337 172 200 214 221 240 229 232 237 196 181 178 176 177 177 175 174 171 176 181 178 180 180 180 182 191 190 161 172 181 181 190 198 197 198 203 210 215 220 223 235 245 238 238 231 214 264 255 213 217 267 275 240 239 243 235 221 227 235 233 228 226 224 228 232 233 236 237
163 163 161 162 163 162 162 164 170 175 178 186 191 190 192 179 175 184 167 69 260 175 159 183 199 234 220 237 242 197 181 184 179 178 176 177 177 171 173 179 182 185 179 179 185 198 185 169 173 176 175 189 197 198 197 195 213 225 200 203 226 243 242 233 236 231 267 291 154 184 253 282 286 266 254 248 235 226 228 225 220 220 220 222 230 236 240 243
162 162 159 160 161 158 157 161 173 175 170 183 192 192 196 183 172 178 168 274 243 152 143 166 176 202 206 231 215 187 168 158 167 178 177 176 179 179 178 173 179 187 172 170 195 180 161 172 176 173 177 189 195 202 196 189 216 224 158 182 214 226 232 230 238 241 262 311 299 216 237 274 283 274 248 238 245 239 230 223 215 216 219 217 224 236 242 244
157 161 159 159 159 157 160 169 172 174 174 183 186 187 188 171 164 166 167 243 198 129 141 162 178 195 200 210 197 185 141 149 158 182 177 175 179 180 189 180 177 181 170 170 192 159 158 174 174 172 181 190 197 205 185 184 214 200 136 188 209 213 231 238 240 249 295 326 274 234 219 254 267 260 217 219 233 241 235 231 226 220 221 217 217 231 240 243
156 159 159 160 160 157 160 164 163 168 183 188 180 183 184 162 154 155 190 235 144 103 146 163 180 190 181 189 191 196 166 160 164 173 174 181 182 178 191 187 180 171 171 180 182 148 163 177 175 175 187 192 197 199 176 189 210 150 138 179 189 206 231 247 240 243 341 276 257 239 215 246 274 260 227 221 227 236 236 234 235 229 226 219 213 226 237 240
157 159 161 163 162 158 153 153 159 165 172 180 179 182 181 162 153 161 195 199 109 119 153 160 172 173 169 185 192 194 192 172 150 158 171 183 178 175 170 176 179 158 160 172 148 123 132 168 176 182 192 191 192 188 181 193 177 129 136 147 128 167 173 209 232 180 258 254 245 225 220 242 281 256 218 228 227 224 228 230 234 233 230 220 211 223 235 237
155 159 162 163 163 161 152 146 156 159 154 164 173 173 168 161 176 203 186 185 61 147 159 160 166 164 173 193 192 176 188 180 147 152 164 168 167 174 156 167 178 149 142 129 110 115 119 155 172 169 187 185 177 166 149 156 147 132 144 146 122 121 125 161 195 176 233 244 251 209 209 222 246 240 193 241 239 226 232 234 236 236 236 228 215 221 233 236
152 156 157 161 164 160 152 152 159 157 150 156 162 161 158 175 238 212 178 8 79 164 169 158 165 164 176 195 200 171 172 181 162 159 160 164 169 180 171 172 165 146 152 152 144 140 143 161 149 127 184 179 156 130 97 124 151 152 160 158 152 152 160 199 191 199 236 222 102 155 192 223 244 250 250 253 252 247 241 237 243 246 247 242 226 226 234 236
150 154 155 159 162 156 152 158 161 156 151 154 155 154 163 222 223 185 161 35 68 149 166 159 164 166 174 188 200 177 168 175 174 167 165 169 173 183 187 181 168 164 163 159 157 150 148 173 157 146 182 177 163 155 163 173 178 176 169 171 179 165 178 208 193 216 248 207 163 157 171 252 264 264 247 249 254 253 245 241 249 253 250 253 245 232 231 230
146 151 155 155 158 159 159 157 158 158 155 154 153 154 184 220 195 133 155 178 27 102 154 164 165 167 180 188 187 179 174 178 178 170 167 171 176 185 187 184 182 174 139 151 159 158 159 183 178 172 173 180 184 187 171 149 157 179 178 184 194 178 189 208 196 215 233 192 163 162 167 247 261 23 290 259 261 258 256 251 255 255 247 250 256 251 239 233
141 145 151 153 156 161 162 157 156 161 159 152 145 165 192 207 194 152 162 142 134 158 154 175 169 164 184 192 183 189 191 181 181 177 173 176 177 180 176 180 191 178 142 154 159 163 175 169 169 176 182 184 189 181 140 127 136 187 189 197 212 212 212 219 234 217 210 198 178 185 228 261 276 319 290 266 248 226 237 249 251 252 247 248 255 259 256 248
135 138 145 152 156 160 164 162 157 161 160 149 142 192 198 203 125 172 156 129 150 172 154 171 175 160 177 183 186 199 205 158 181 183 180 180 179 177 172 172 185 183 166 159 147 168 183 158 153 170 190 188 184 160 145 146 150 169 200 205 196 336 246 222 198 76 63 271 232 191 237 264 280 283 258 245 248 227 208 226 239 245 248 248 252 257 258 256
130 132 141 154 160 161 165 166 162 161 161 151 169 193 198 253 106 84 100 142 164 176 161 167 182 170 171 170 185 196 192 163 182 185 178 183 183 173 169 170 182 185 174 157 145 171 161 114 94 176 176 182 176 157 160 161 145 155 194 190 126 42 302 239 221 192 200 254 243 200 232 250 254 268 221 214 244 244 214 210 227 241 244 245 250 256 261 266
129 128 134 155 165 163 161 164 165 163 160 166 209 201 184 195 154 113 15 185 170 173 175 172 189 199 176 173 178 181 181 181 183 184 176 182 187 172 169 171 182 188 176 158 146 142 131 100 17 289 161 151 126 160 168 168 51 159 184 171 162 208 222 201 221 228 214 237 256 226 237 247 230 232 232 215 232 252 237 213 212 232 237 237 247 254 260 268
127 125 128 161 169 165 159 157 161 165 168 184 207 208 181 154 162 160 149 278 184 188 199 180 121 206 194 170 154 164 184 196 181 176 184 184 180 177 178 175 177 185 179 164 153 147 135 120 138 289 353 146 152 176 179 171 88 296 180 174 197 237 218 203 210 226 224 233 265 259 245 247 227 219 229 232 229 242 252 234 213 227 235 233 243 257 267 275
132 122 125 167 167 163 160 155 158 167 179 197 204 197 163 154 170 184 182 179 321 242 214 192 127 157 178 153 141 166 191 207 187 179 190 187 174 176 185 183 172 179 181 174 161 151 149 132 134 137 304 174 176 197 190 179 170 178 184 185 195 199 210 232 215 218 244 239 258 271 259 256 220 195 211 221 227 233 244 255 240 230 236 239 267 287 285 286
132 111 128 166 166 161 158 157 165 178 187 203 205 182 150 152 153 177 188 191 201 25 19 334 171 166 164 157 172 188 189 206 194 188 192 189 184 179 187 187 171 169 178 179 171 159 156 139 131 144 187 184 176 186 186 185 182 184 190 189 186 180 174 198 210 209 215 233 244 263 269 264 161 154 186 195 217 232 241 263 261 247 257 276 296 303 293 290
123 105 140 166 168 162 160 161 177 189 198 206 202 161 150 162 156 168 179 187 198 42 24 346 217 178 179 176 166 162 173 211 201 196 197 192 196 197 185 183 174 167 168 164 153 129 101 112 130 145 164 152 89 55 51 43 194 196 208 203 191 189 193 201 213 198 190 225 249 283 282 273 134 149 170 163 187 220 248 270 266 262 266 268 285 295 289 285
104 100 133 167 170 165 163 167 179 192 210 205 197 138 139 149 158 166 173 182 186 144 77 314 246 206 209 192 160 160 169 207 215 205 203 189 197 211 180 180 177 171 169 143 118 114 98 108 127 125 104 54 51 63 48 20 267 202 212 212 201 201 205 209 230 197 193 216 215 236 261 252 133 147 156 128 131 141 246 248 250 259 268 270 279 288 288 286
110 107 126 168 173 172 174 177 179 197 213 191 193 181 159 161 176 173 173 181 179 157 170 220 230 228 231 195 192 186 176 194 226 219 225 190 194 215 179 180 179 175 175 161 156 161 152 138 135 130 135 136 116 151 181 211 228 210 205 207 204 205 205 197 22 254 223 220 204 214 249 248 137 125 127 110 136 206 238 239 243 256 268 275 276 275 283 314
120 113 122 169 181 187 205 233 191 200 209 190 200 200 183 188 192 187 184 180 180 174 170 195 207 218 265 215 213 206 189 189 210 214 249 200 226 284 181 180 180 176 173 167 166 164 153 157 151 145 161 174 181 191 188 185 200 201 199 203 204 207 206 195 196 226 224 219 206 216 252 257 142 133 180 167 182 219 228 221 243 262 260 258 246 197 101 72
136 139 133 168 193 205 233 258 238 225 209 197 205 201 199 217 203 193 197 188 180 179 172 176 179 185 267 238 223 214 202 206 237 218 230 182 198 310 185 180 179 173 156 153 160 154 122 168 172 168 176 178 156 142 122 119 137 170 191 198 194 200 211 207 206 225 225 226 224 229 245 252 230 184 183 182 198 215 211 183 206 239 243 227 199 160 114 85
148 170 155 163 191 214 237 247 239 232 214 200 194 181 194 207 199 188 204 204 180 174 182 180 163 169 214 215 222 219 198 195 205 208 224 195 130 348 185 180 177 166 146 148 161 157 123 181 182 180 183 178 145 143 139 139 155 175 183 186 183 182 198 204 208 222 222 220 236 233 234 247 250 226 196 195 200 206 208 198 200 206 209 209 201 183 160 38
158 175 175 178 180 194 213 223 226 223 218 209 201 190 193 201 197 184 196 205 189 177 181 206 196 195 190 185 218 223 184 177 194 185 199 194 151 116 172 178 177 161 146 156 173 158 141 189 186 179 173 164 162 163 158 159 170 179 181 185 186 185 193 202 213 223 216 208 233 235 226 240 250 238 219 219 212 209 208 197 190 182 193 221 245 263 277 288
195 190 185 193 200 198 200 207 213 217 220 216 213 220 211 203 203 199 187 186 193 190 188 203 207 202 200 196 211 222 191 181 188 182 179 178 169 158 159 169 194 167 150 165 193 164 168 186 176 172 159 149 167 165 163 171 175 180 187 190 188 189 196 204 216 225 220 219 237 240 234 245 251 244 236 234 225 221 196 162 183 198 211 246 273 277 277 279
183 177 197 215 229 233 221 216 210 213 220 216 218 230 226 215 211 208 191 181 187 187 192 209 212 194 194 198 203 223 222 209 210 192 174 170 171 176 174 170 185 176 163 173 184 177 190 177 158 165 156 143 179 166 166 177 178 181 190 192 190 193 200 209 219 224 217 225 239 242 249 261 261 242 242 243 229 221 191 167 212 226 238 256 265 269 272 275
186 190 208 230 232 236 242 233 215 216 219 211 218 224 224 225 219 209 200 197 196 184 184 205 215 192 181 194 207 222 223 219 250 218 177 178 180 179 185 174 164 165 169 179 180 179 189 172 157 166 176 184 183 171 171 173 171 180 191 193 194 198 204 210 217 215 205 219 234 238 244 256 257 176 230 243 227 219 219 228 244 249 251 257 260 265 271 275
204 213 224 243 255 242 244 242 224 226 225 213 221 222 220 229 222 209 209 208 206 203 194 200 207 186 175 202 215 225 217 216 251 235 193 206 238 192 252 188 170 171 174 177 178 179 183 175 161 172 183 176 163 165 161 142 141 198 203 197 198 201 206 211 216 215 212 217 225 226 231 241 223 117 214 232 205 210 227 236 246 252 253 256 259 263 270 276